Terminal Aerodrome Forecast
Issued by NWS Wichita, KS

Home | Current Version | Previous Version | Text Only | Print | Product List | Glossary Off
Versions: 1 2 3 4 5 6 7 8 9 10 11 12 13 14 15 16 17 18 19 20 21 22 23 24 25 26 27 28 29

000
FTUS43 KICT 221758 AAB
TAFICT
TAF AMD
KICT 221758Z 2218/2318 13009KT 6SM BR VCSH SCT006 OVC011
      TEMPO 2218/2222 2SM -DZ BR OVC006
     FM230100 13011KT 5SM -DZ BR OVC009
     FM231500 15014KT 5SM -SHRA VCTS SCT007 OVC010CB=

USA.gov is the U.S. government's official web portal to all federal, state and local government web resources and services.